Location: ???????????
(54.6970°N, 39.1477°E)
Time: 01:05:45
(UTC+00:00)

Cosmos 2221 - Pass Details

Date: 19 May 2025
Orbit: 572 x 593 km, 82.5° (Epoch: 13 June)

Event Time Altitude Azimuth Distance (km) Brightness Sun altitude
Exits shadow 20:01:02 - 211° (SSW) 1,932 4.7 -13.5°
Reaches altitude 10° 20:01:08 10° 211° (SSW) 1,892 4.7 -13.5°
Maximum altitude 20:05:11 49° 287° (WNW) 756 3.2 -13.6°
Drops below altitude 10° 20:09:15 10° 3° (N) 1,897 6.2 -13.8°
Sets 20:11:31 0° 9° (N) 2,799 7.2 -13.9°
